Pinedale, WY

8:36 AM MDT on May 24, 2017 (GMT -0600)
Wenz

Weather History for KPNA - April, 2013

Change the Weather History Date:

Friday, April 12, 2013

  Actual Average (KBPI) Record (KBPI)
Temperature  
Mean Temperature 34 °F -  
Max Temperature 46 °F 47 °F 67 °F (1988)
Min Temperature 23 °F 19 °F 7 °F (1997)
Degree Days  
Heating Degree Days 30    
Moisture  
Dew Point 16 °F    
Average Humidity 55    
Maximum Humidity 100    
Minimum Humidity 17    
Precipitation  
Precipitation 0.00 in - - ()
Sea Level Pressure  
Sea Level Pressure 29.92 in    
Wind  
Wind Speed 9 mph (WNW)    
Max Wind Speed 24 mph    
Max Gust Speed 33 mph    
Visibility 10 miles    
Events      
Averages and records for this station are not official NWS values.
T = Trace of Precipitation, MM = Missing Value Source: NWS Daily Summary

Daily Weather History Graph

Daily Weather History Graph

Search for Another Location

Airport or City:

Trip Planner

Search our weather history database for the weather conditions in past years. The results will help you decide how hot, cold, wet, or windy it might be!

Date:

Astronomy

Apr. 12, 2013 Rise Set
Actual Time 6:42 AM MDT 7:58 PM MDT
Civil Twilight 6:12 AM MDT 8:27 PM MDT
Nautical Twilight 5:37 AM MDT 9:02 PM MDT
Astronomical Twilight 5:00 AM MDT 9:40 PM MDT
Moon 7:51 AM MDT (4/12) 10:35 PM MDT (4/12)
Length of Visible Light 14h 14m
Length of Day
13h 16m
Waxing Crescent, 5% of the Moon is Illuminated
Apr 12
Waxing Crescent
Apr 18
First Quarter
Apr 25
Full
May 2
Last Quarter
May 9
New

Hourly Weather History & Observations

Time (MDT) Temp. Windchill Dew Point Humidity Pressure Visibility Wind Dir Wind Speed Gust Speed Precip Events Conditions
12:15 AM 32.0 °F 24.8 °F 24.8 °F 75% 29.92 in 10.0 mi WNW 8.1 mph - N/A   Mostly Cloudy
12:35 AM 32.0 °F 26.4 °F 24.8 °F 75% 29.92 in 10.0 mi WNW 5.8 mph - N/A   Overcast
12:55 AM 30.2 °F 26.7 °F 24.8 °F 80% 29.92 in 10.0 mi WNW 3.5 mph - N/A   Scattered Clouds
1:15 AM 30.2 °F 25.4 °F 23.0 °F 75% 29.92 in 10.0 mi WNW 4.6 mph - N/A   Clear
1:35 AM 28.4 °F 22.2 °F 23.0 °F 80% 29.92 in 10.0 mi West 5.8 mph - N/A   Scattered Clouds
1:55 AM 28.4 °F 20.4 °F 23.0 °F 80% 29.92 in 10.0 mi West 8.1 mph - N/A   Scattered Clouds
2:15 AM 28.4 °F 20.4 °F 23.0 °F 80% 29.92 in 10.0 mi West 8.1 mph - N/A   Scattered Clouds
2:35 AM 28.4 °F 20.4 °F 23.0 °F 80% 29.91 in 10.0 mi West 8.1 mph - N/A   Mostly Cloudy
2:55 AM 28.4 °F 19.7 °F 24.8 °F 86% 29.90 in 10.0 mi West 9.2 mph - N/A   Overcast
3:15 AM 28.4 °F 20.4 °F 26.6 °F 93% 29.90 in 10.0 mi West 8.1 mph - N/A   Overcast
3:35 AM 28.4 °F 22.2 °F 26.6 °F 93% 29.90 in 10.0 mi WNW 5.8 mph - N/A   Mostly Cloudy
3:55 AM 26.6 °F 18.2 °F 26.6 °F 100% 29.90 in 10.0 mi WNW 8.1 mph - N/A   Scattered Clouds
4:15 AM 26.6 °F 18.2 °F 24.8 °F 93% 29.91 in 10.0 mi West 8.1 mph - N/A   Mostly Cloudy
4:35 AM 26.6 °F 19.1 °F 26.6 °F 100% 29.91 in 10.0 mi West 6.9 mph - N/A   Scattered Clouds
4:55 AM 26.6 °F 21.2 °F 24.8 °F 93% 29.91 in 10.0 mi West 4.6 mph - N/A   Mostly Cloudy
5:15 AM 23.0 °F 17.0 °F 23.0 °F 100% 29.91 in 10.0 mi WNW 4.6 mph - N/A   Scattered Clouds
5:35 AM 24.8 °F 15.3 °F 24.8 °F 100% 29.92 in 10.0 mi WNW 9.2 mph - N/A   Scattered Clouds
5:55 AM 26.6 °F 19.1 °F 24.8 °F 93% 29.92 in 10.0 mi NW 6.9 mph - N/A   Mostly Cloudy
6:15 AM 23.0 °F 17.0 °F 23.0 °F 100% 29.92 in 10.0 mi WNW 4.6 mph - N/A   Scattered Clouds
6:35 AM 23.0 °F 18.4 °F 23.0 °F 100% 29.92 in 10.0 mi NW 3.5 mph - N/A   Clear
6:55 AM 23.0 °F 15.8 °F 23.0 °F 100% 29.92 in 10.0 mi West 5.8 mph - N/A   Clear
7:15 AM 24.8 °F 17.9 °F 23.0 °F 93% 29.93 in 10.0 mi WNW 5.8 mph - N/A   Scattered Clouds
7:35 AM 26.6 °F 22.6 °F 26.6 °F 100% 29.93 in 10.0 mi NW 3.5 mph - N/A   Clear
7:55 AM 28.4 °F 23.3 °F 26.6 °F 93% 29.94 in 10.0 mi WNW 4.6 mph - N/A   Clear
8:15 AM 30.2 °F 24.3 °F 26.6 °F 86% 29.95 in 10.0 mi West 5.8 mph - N/A   Clear
8:55 AM 33.8 °F 23.5 °F 24.8 °F 70% 29.96 in 10.0 mi WNW 16.1 mph - N/A   Scattered Clouds
9:15 AM 35.6 °F 26.6 °F 23.0 °F 60% 29.97 in 10.0 mi NW 13.8 mph 20.7 mph N/A   Clear
9:35 AM 35.6 °F 24.8 °F 21.2 °F 56% 29.97 in 10.0 mi NW 19.6 mph 24.2 mph N/A   Clear
9:55 AM 35.6 °F 25.5 °F 19.4 °F 52% 29.97 in 10.0 mi NW 17.3 mph 27.6 mph N/A   Clear
10:15 AM 37.4 °F 27.8 °F 17.6 °F 45% 29.97 in 10.0 mi WNW 17.3 mph 28.8 mph N/A   Clear
10:35 AM 37.4 °F 26.6 °F 14.0 °F 38% 29.98 in 10.0 mi NW 21.9 mph 31.1 mph N/A   Clear
10:55 AM 39.2 °F 28.7 °F 14.0 °F 36% 29.98 in 10.0 mi WNW 23.0 mph 29.9 mph N/A   Clear
11:15 AM 41.0 °F 31.1 °F 14.0 °F 33% 29.98 in 10.0 mi WNW 23.0 mph 29.9 mph N/A   Clear
11:35 AM 41.0 °F 31.9 °F 12.2 °F 31% 29.97 in 10.0 mi WNW 19.6 mph 29.9 mph N/A   Clear
11:55 AM 42.8 °F 33.5 °F 10.4 °F 27% 29.97 in 10.0 mi WNW 23.0 mph 31.1 mph N/A   Clear
12:15 PM 42.8 °F 33.8 °F 8.6 °F 25% 29.97 in 10.0 mi WNW 21.9 mph 28.8 mph N/A   Clear
12:35 PM 42.8 °F 33.8 °F 5.0 °F 21% 29.97 in 10.0 mi WNW 21.9 mph 32.2 mph N/A   Clear
12:55 PM 44.6 °F 35.7 °F 3.2 °F 18% 29.97 in 10.0 mi NW 24.2 mph 31.1 mph N/A   Clear
1:15 PM 44.6 °F 35.9 °F 1.4 °F 17% 29.97 in 10.0 mi WNW 23.0 mph 33.4 mph N/A   Clear
1:35 PM 44.6 °F 38.8 °F 6.8 °F 21% 29.95 in 10.0 mi NW 11.5 mph 28.8 mph N/A   Clear
1:55 PM 44.6 °F 38.1 °F 8.6 °F 23% 29.95 in 10.0 mi West 13.8 mph 25.3 mph N/A   Clear
2:15 PM 46.4 °F 41.9 °F 10.4 °F 23% 29.95 in 10.0 mi West 9.2 mph 24.2 mph N/A   Clear
2:35 PM 46.4 °F 41.5 °F 10.4 °F 23% 29.95 in 10.0 mi WNW 10.4 mph 21.9 mph N/A   Clear
2:55 PM 46.4 °F 41.1 °F 10.4 °F 23% 29.95 in 10.0 mi WNW 11.5 mph 23.0 mph N/A   Clear
3:15 PM 46.4 °F 41.5 °F 6.8 °F 20% 29.94 in 10.0 mi WSW 10.4 mph 20.7 mph N/A   Clear
3:35 PM 46.4 °F 40.1 °F 8.6 °F 22% 29.93 in 10.0 mi West 15.0 mph 19.6 mph N/A   Clear
3:55 PM 46.4 °F 41.1 °F 5.0 °F 18% 29.93 in 10.0 mi NW 11.5 mph 23.0 mph N/A   Clear
4:15 PM 46.4 °F 40.1 °F 5.0 °F 18% 29.93 in 10.0 mi West 15.0 mph 28.8 mph N/A   Clear
4:35 PM 46.4 °F 39.5 °F 5.0 °F 18% 29.92 in 10.0 mi WNW 17.3 mph 21.9 mph N/A   Clear
4:55 PM 46.4 °F 40.7 °F 5.0 °F 18% 29.91 in 10.0 mi WNW 12.7 mph 23.0 mph N/A   Scattered Clouds
5:15 PM 46.4 °F 40.1 °F 3.2 °F 17% 29.91 in 10.0 mi WNW 15.0 mph 24.2 mph N/A   Clear
5:35 PM 46.4 °F 39.5 °F 3.2 °F 17% 29.90 in 10.0 mi WNW 17.3 mph 23.0 mph N/A   Scattered Clouds
5:55 PM 44.6 °F 38.4 °F 5.0 °F 20% 29.91 in 10.0 mi WNW 12.7 mph 18.4 mph N/A   Scattered Clouds
6:15 PM 46.4 °F 39.8 °F 3.2 °F 17% 29.90 in 10.0 mi West 16.1 mph 23.0 mph N/A   Clear
6:35 PM 44.6 °F 38.4 °F 5.0 °F 20% 29.90 in 10.0 mi West 12.7 mph 20.7 mph N/A   Scattered Clouds
6:55 PM 44.6 °F 39.2 °F 8.6 °F 23% 29.90 in 10.0 mi West 10.4 mph - N/A   Mostly Cloudy
7:15 PM 42.8 °F 37.0 °F 8.6 °F 25% 29.90 in 10.0 mi West 10.4 mph 20.7 mph N/A   Mostly Cloudy
7:35 PM 41.0 °F 34.3 °F 10.4 °F 29% 29.90 in 10.0 mi WNW 11.5 mph - N/A   Mostly Cloudy
7:55 PM 41.0 °F 35.2 °F 12.2 °F 31% 29.89 in 10.0 mi WNW 9.2 mph - N/A   Scattered Clouds
8:15 PM 35.6 °F 31.7 °F 14.0 °F 41% 29.89 in 10.0 mi West 4.6 mph - N/A   Clear
8:35 PM 35.6 °F 31.7 °F 14.0 °F 41% 29.89 in 10.0 mi West 4.6 mph - N/A   Clear
8:55 PM 32.0 °F 26.4 °F 17.6 °F 55% 29.89 in 10.0 mi WNW 5.8 mph - N/A   Scattered Clouds
9:15 PM 32.0 °F 26.4 °F 17.6 °F 55% 29.89 in 10.0 mi West 5.8 mph - N/A   Scattered Clouds
9:35 PM 32.0 °F 28.7 °F 19.4 °F 60% 29.90 in 10.0 mi NE 3.5 mph - N/A   Clear
9:55 PM 32.0 °F 28.7 °F 17.6 °F 55% 29.90 in 10.0 mi NNE 3.5 mph - N/A   Clear
10:15 PM 30.2 °F - 19.4 °F 64% 29.90 in 10.0 mi Calm Calm - N/A   Clear
10:35 PM 32.0 °F 28.7 °F 17.6 °F 55% 29.89 in 10.0 mi SW 3.5 mph - N/A   Clear
10:55 PM 28.4 °F 24.6 °F 19.4 °F 69% 29.90 in 10.0 mi East 3.5 mph - N/A   Clear
11:15 PM 30.2 °F - 19.4 °F 64% 29.90 in 10.0 mi Calm Calm - N/A   Scattered Clouds
11:35 PM 30.2 °F 26.7 °F 19.4 °F 64% 29.88 in 10.0 mi ENE 3.5 mph - N/A   Mostly Cloudy
11:55 PM 28.4 °F - 19.4 °F 69% 29.87 in 10.0 mi Calm Calm - N/A   Scattered Clouds